Weather History for KRKR - November, 2013

Change the Weather History Date:

Tuesday, November 12, 2013

  Actual Average (KFSM) Record (KFSM)
Temperature  
Mean Temperature 48 °F 53 °F  
Max Temperature 62 °F 65 °F 85 °F (1955)
Min Temperature 33 °F 42 °F 16 °F (1911)
Degree Days  
Heating Degree Days 18 12  
Month to date heating degree days 122  
Since 1 July heating degree days 276  
Moisture  
Dew Point 31 °F    
Average Humidity 64    
Maximum Humidity 93    
Minimum Humidity 37    
Precipitation  
Precipitation 0.00 in 0.15 in 2.32 in (1922)
Month to date precipitation 1.80  
Year to date precipitation 39.53  
Sea Level Pressure  
Sea Level Pressure 30.62 in    
Wind  
Wind Speed 12 mph (North)    
Max Wind Speed 21 mph    
Max Gust Speed 29 mph    
Visibility 10 miles    
Events Rain    
T = Trace of Precipitation, MM = Missing Value Source: NWS Daily Summary

Daily Weather History Graph

Daily Weather History Graph

Search for Another Location

Airport or City:

Trip Planner

Search our weather history database for the weather conditions in past years. The results will help you decide how hot, cold, wet, or windy it might be!

Date:

Astronomy

Nov. 12, 2013 Rise Set
Actual Time 6:50 AM CST 5:14 PM CST
Civil Twilight 6:23 AM CST 5:41 PM CST
Nautical Twilight 5:53 AM CST 6:11 PM CST
Astronomical Twilight 5:23 AM CST 6:41 PM CST
Moon 2:19 PM CST (11/12) 1:52 AM CST (11/12)
Length of Visible Light 11h 17m
Length of Day
10h 24m
Waxing Gibbous, 76% of the Moon is Illuminated
Nov 12
Waxing Gibbous
Nov 17
Full
Nov 25
Last Quarter
Dec 2
New
Dec 9
First Quarter

Hourly Weather History & Observations

Time (CST) Temp. Windchill Dew Point Humidity Pressure Visibility Wind Dir Wind Speed Gust Speed Precip Events Conditions
12:15 AM 62.6 °F - 55.4 °F 77% 30.31 in 10.0 mi North 10.4 mph 16.1 mph N/A   Unknown
12:35 AM 60.8 °F - 55.4 °F 82% 30.31 in 10.0 mi North 12.7 mph 18.4 mph N/A   Unknown
12:55 AM 60.8 °F - 55.4 °F 82% 30.33 in 10.0 mi NNW 12.7 mph 17.3 mph N/A   Unknown
1:15 AM 59.0 °F - 53.6 °F 82% 30.34 in 10.0 mi North 19.6 mph 24.2 mph N/A   Unknown
1:35 AM 55.4 °F - 51.8 °F 88% 30.36 in 10.0 mi NNW 18.4 mph 23.0 mph N/A   Unknown
1:55 AM 53.6 °F - 50.0 °F 88% 30.38 in 10.0 mi North 19.6 mph 26.5 mph N/A   Unknown
2:15 AM 51.8 °F - 46.4 °F 82% 30.39 in 10.0 mi North 20.7 mph 28.8 mph N/A   Unknown
2:35 AM 51.8 °F - 46.4 °F 82% 30.42 in 7.0 mi North 15.0 mph 27.6 mph N/A   Unknown
2:55 AM 48.2 °F - 44.6 °F 87% 30.44 in 7.0 mi North 16.1 mph 24.2 mph N/A Rain Light Rain
3:15 AM 48.2 °F - 44.6 °F 87% 30.45 in 10.0 mi North 16.1 mph 19.6 mph N/A   Unknown
3:35 AM 46.4 °F 40.4 °F 44.6 °F 93% 30.47 in 7.0 mi NNW 13.8 mph - N/A   Drizzle
3:55 AM 46.4 °F 40.7 °F 42.8 °F 87% 30.48 in 7.0 mi NNW 12.7 mph - N/A   Drizzle
4:15 AM 46.4 °F 40.4 °F 42.8 °F 87% 30.49 in 10.0 mi North 13.8 mph 21.9 mph N/A   Unknown
4:35 AM 44.6 °F 38.4 °F 41.0 °F 87% 30.51 in 10.0 mi NNW 12.7 mph 20.7 mph N/A   Unknown
4:55 AM 44.6 °F 37.8 °F 41.0 °F 87% 30.53 in 10.0 mi NNW 15.0 mph 20.7 mph N/A   Unknown
5:15 AM 44.6 °F 37.4 °F 39.2 °F 81% 30.54 in 10.0 mi NNW 16.1 mph 21.9 mph N/A   Unknown
5:35 AM 44.6 °F 38.1 °F 37.4 °F 76% 30.56 in 10.0 mi North 13.8 mph 23.0 mph N/A   Unknown
5:55 AM 42.8 °F 35.8 °F 37.4 °F 81% 30.57 in 10.0 mi North 13.8 mph 21.9 mph N/A   Unknown
6:15 AM 42.8 °F 35.1 °F 35.6 °F 76% 30.59 in 10.0 mi North 16.1 mph 21.9 mph N/A   Unknown
6:35 AM 42.8 °F 35.8 °F 35.6 °F 76% 30.60 in 10.0 mi NNW 13.8 mph 17.3 mph N/A   Unknown
6:55 AM 41.0 °F 34.3 °F 33.8 °F 76% 30.61 in 10.0 mi North 11.5 mph 24.2 mph N/A   Unknown
7:15 AM 41.0 °F 33.5 °F 33.8 °F 76% 30.63 in 10.0 mi North 13.8 mph 23.0 mph N/A   Unknown
7:35 AM 41.0 °F 33.9 °F 33.8 °F 76% 30.65 in 10.0 mi North 12.7 mph 20.7 mph N/A   Unknown
7:55 AM 41.0 °F 33.1 °F 32.0 °F 70% 30.66 in 10.0 mi North 15.0 mph 21.9 mph N/A   Unknown
8:15 AM 39.2 °F 31.6 °F 32.0 °F 75% 30.67 in 10.0 mi North 12.7 mph - N/A   Unknown
8:35 AM 41.0 °F 33.9 °F 32.0 °F 70% 30.67 in 10.0 mi North 12.7 mph - N/A   Unknown
8:55 AM 41.0 °F 32.8 °F 30.2 °F 65% 30.67 in 10.0 mi North 16.1 mph 23.0 mph N/A   Unknown
9:15 AM 41.0 °F 32.8 °F 30.2 °F 65% 30.69 in 10.0 mi North 16.1 mph 23.0 mph N/A   Unknown
9:35 AM 41.0 °F 32.5 °F 32.0 °F 70% 30.69 in 10.0 mi North 17.3 mph 24.2 mph N/A   Unknown
9:55 AM 41.0 °F 32.8 °F 30.2 °F 65% 30.70 in 10.0 mi North 16.1 mph 23.0 mph N/A   Unknown
10:15 AM 42.8 °F 36.2 °F 30.2 °F 61% 30.70 in 10.0 mi North 12.7 mph 19.6 mph N/A   Unknown
10:35 AM 42.8 °F 36.6 °F 28.4 °F 57% 30.71 in 10.0 mi NNE 11.5 mph 21.9 mph N/A   Unknown
10:55 AM 42.8 °F 36.6 °F 28.4 °F 57% 30.70 in 10.0 mi North 11.5 mph - N/A   Unknown
11:15 AM 44.6 °F 38.4 °F 28.4 °F 53% 30.70 in 10.0 mi North 12.7 mph 18.4 mph N/A   Unknown
11:35 AM 44.6 °F 39.2 °F 28.4 °F 53% 30.69 in 10.0 mi North 10.4 mph 16.1 mph N/A   Unknown
11:55 AM 44.6 °F 39.2 °F 26.6 °F 49% 30.69 in 10.0 mi NNE 10.4 mph 23.0 mph N/A   Unknown
12:15 PM 44.6 °F 38.1 °F 26.6 °F 49% 30.68 in 10.0 mi North 13.8 mph 21.9 mph N/A   Unknown
12:35 PM 44.6 °F 39.7 °F 26.6 °F 49% 30.68 in 10.0 mi NNE 9.2 mph 18.4 mph N/A   Unknown
12:55 PM 46.4 °F 41.5 °F 26.6 °F 46% 30.67 in 10.0 mi North 10.4 mph 17.3 mph N/A   Unknown
1:15 PM 46.4 °F 41.9 °F 26.6 °F 46% 30.67 in 10.0 mi North 9.2 mph - N/A   Unknown
1:35 PM 48.2 °F - 24.8 °F 40% 30.66 in 10.0 mi North 16.1 mph 20.7 mph N/A   Unknown
1:55 PM 48.2 °F - 24.8 °F 40% 30.66 in 10.0 mi North 10.4 mph 19.6 mph N/A   Unknown
2:15 PM 50.0 °F - 26.6 °F 40% 30.66 in 10.0 mi North 8.1 mph - N/A   Unknown
2:35 PM 50.0 °F - 24.8 °F 37% 30.66 in 10.0 mi North 12.7 mph 18.4 mph N/A   Unknown
2:55 PM 50.0 °F - 26.6 °F 40% 30.66 in 10.0 mi North 12.7 mph 19.6 mph N/A   Unknown
3:15 PM 48.2 °F - 24.8 °F 40% 30.65 in 10.0 mi NNW 12.7 mph - N/A   Unknown
3:35 PM 48.2 °F - 23.0 °F 37% 30.66 in 10.0 mi North 12.7 mph 19.6 mph N/A   Unknown
3:55 PM 48.2 °F - 23.0 °F 37% 30.66 in 10.0 mi North 11.5 mph - N/A   Unknown
4:15 PM 46.4 °F 40.4 °F 21.2 °F 37% 30.65 in 10.0 mi North 13.8 mph - N/A   Unknown
4:35 PM 44.6 °F 39.2 °F 21.2 °F 39% 30.65 in 10.0 mi North 10.4 mph - N/A   Unknown
4:55 PM 44.6 °F 39.7 °F 21.2 °F 39% 30.65 in 10.0 mi North 9.2 mph - N/A   Unknown
5:15 PM 42.8 °F 39.3 °F 21.2 °F 42% 30.66 in 10.0 mi North 5.8 mph - N/A   Unknown
5:35 PM 41.0 °F 36.4 °F 21.2 °F 45% 30.66 in 10.0 mi North 6.9 mph - N/A   Unknown
5:55 PM 41.0 °F 36.4 °F 23.0 °F 49% 30.66 in 10.0 mi North 6.9 mph - N/A   Unknown
6:15 PM 39.2 °F 34.2 °F 23.0 °F 52% 30.67 in 10.0 mi North 6.9 mph - N/A   Unknown
6:35 PM 37.4 °F 32.1 °F 23.0 °F 56% 30.68 in 10.0 mi North 6.9 mph - N/A   Unknown
6:55 PM 37.4 °F 32.1 °F 23.0 °F 56% 30.69 in 10.0 mi North 6.9 mph - N/A   Unknown
7:15 PM 37.4 °F 33.8 °F 23.0 °F 56% 30.69 in 10.0 mi North 4.6 mph - N/A   Unknown
7:35 PM 37.4 °F 32.8 °F 23.0 °F 56% 30.70 in 10.0 mi North 5.8 mph - N/A   Unknown
7:55 PM 37.4 °F - 24.8 °F 60% 30.70 in 10.0 mi Calm Calm - N/A   Unknown
8:15 PM 35.6 °F - 24.8 °F 65% 30.70 in 10.0 mi Calm Calm - N/A   Unknown
8:35 PM 35.6 °F - 23.0 °F 60% 30.71 in 10.0 mi Calm Calm - N/A   Unknown
8:55 PM 35.6 °F 32.8 °F 23.0 °F 60% 30.71 in 10.0 mi NE 3.5 mph - N/A   Unknown
9:15 PM 35.6 °F 32.8 °F 24.8 °F 65% 30.71 in 10.0 mi NE 3.5 mph - N/A   Unknown
9:35 PM 35.6 °F - 26.6 °F 70% 30.72 in 10.0 mi Calm Calm - N/A   Unknown
9:55 PM 33.8 °F - 26.6 °F 75% 30.72 in 10.0 mi Calm Calm - N/A   Unknown
10:15 PM 33.8 °F - 24.8 °F 70% 30.72 in 10.0 mi Calm Calm - N/A   Unknown
10:35 PM 35.6 °F 32.8 °F 24.8 °F 65% 30.71 in 10.0 mi NE 3.5 mph - N/A   Unknown
10:55 PM 35.6 °F 31.7 °F 26.6 °F 70% 30.71 in 10.0 mi NNE 4.6 mph - N/A   Unknown
11:15 PM 33.8 °F - 23.0 °F 65% 30.70 in 10.0 mi Calm Calm - N/A   Unknown
11:35 PM 33.8 °F 30.8 °F 24.8 °F 70% 30.70 in 10.0 mi NNE 3.5 mph - N/A   Unknown
11:55 PM 33.8 °F 30.8 °F 26.6 °F 75% 30.70 in 10.0 mi NNE 3.5 mph - N/A   Unknown